Time,TemperatureF,DewpointF,PressureIn,WindDirection,WindDirectionDegrees,WindSpeedMPH,WindSpeedGustMPH,Humidity,HourlyPrecipIn,Conditions,Clouds,dailyrainin,SoftwareType,DateUTC
2013-02-28 00:00:00,30.6,23.2,30.01,NNE,23,7.4,7.4,74,0.00,,,0.00,WUHU216HW,2013-02-28 06:00:00,
2013-02-28 00:05:00,30.6,23.2,30.01,NNE,23,7.4,7.4,74,0.00,,,0.00,WUHU216HW,2013-02-28 06:05:00,
2013-02-28 00:10:00,30.6,23.2,30.01,NNE,23,7.4,7.4,74,0.00,,,0.00,WUHU216HW,2013-02-28 06:10:00,
2013-02-28 00:30:00,31.1,22.9,30.01,North,0,9.6,9.6,71,0.00,,,0.00,WUHU216HW,2013-02-28 06:30:00,
2013-02-28 00:35:00,31.1,22.9,30.01,North,0,12.5,12.5,71,0.00,,,0.00,WUHU216HW,2013-02-28 06:35:00,
2013-02-28 00:40:00,31.1,22.9,30.01,North,0,12.5,12.5,71,0.00,,,0.00,WUHU216HW,2013-02-28 06:40:00,
2013-02-28 01:00:00,31.3,22.7,30.01,NNW,338,8.3,8.3,70,0.00,,,0.00,WUHU216HW,2013-02-28 07:00:00,
2013-02-28 01:05:00,31.3,22.7,30.01,North,0,6.3,8.3,70,0.00,,,0.00,WUHU216HW,2013-02-28 07:05:00,
2013-02-28 01:10:00,31.3,22.7,30.01,North,0,6.3,6.3,70,0.00,,,0.00,WUHU216HW,2013-02-28 07:10:00,
2013-02-28 01:30:00,31.3,22.7,30.02,North,0,9.6,9.6,70,0.00,,,0.00,WUHU216HW,2013-02-28 07:30:00,
2013-02-28 01:35:00,31.3,22.7,30.02,North,0,6.7,9.6,70,0.00,,,0.00,WUHU216HW,2013-02-28 07:35:00,
2013-02-28 01:36:00,31.3,22.7,30.02,North,0,6.7,9.6,70,0.00,,,0.00,WUHU216HW,2013-02-28 07:36:00,
2013-02-28 01:40:00,31.3,22.7,30.02,North,0,6.7,6.7,70,0.00,,,0.00,WUHU216HW,2013-02-28 07:40:00,
2013-02-28 02:00:00,31.0,23.0,30.02,North,0,3.8,3.8,72,0.00,,,0.00,WUHU216HW,2013-02-28 08:00:00,
2013-02-28 02:05:00,31.0,23.0,30.02,North,0,3.4,3.8,72,0.00,,,0.00,WUHU216HW,2013-02-28 08:05:00,
2013-02-28 02:10:00,31.0,23.0,30.02,North,0,3.4,3.4,72,0.00,,,0.00,WUHU216HW,2013-02-28 08:10:00,
2013-02-28 02:30:00,31.0,23.0,30.03,NNW,338,6.7,6.7,72,0.00,,,0.00,WUHU216HW,2013-02-28 08:30:00,
2013-02-28 02:35:00,31.1,23.1,30.03,NNW,338,6.7,6.7,72,0.00,,,0.00,WUHU216HW,2013-02-28 08:35:00,
2013-02-28 02:36:00,31.1,23.1,30.03,NNW,338,6.7,6.7,72,0.00,,,0.00,WUHU216HW,2013-02-28 08:36:00,
2013-02-28 02:40:00,31.1,23.1,30.03,NNW,338,6.7,6.7,72,0.00,,,0.00,WUHU216HW,2013-02-28 08:40:00,
2013-02-28 03:00:00,31.0,23.0,30.03,North,0,6.7,6.7,72,0.00,,,0.00,WUHU216HW,2013-02-28 09:00:00,
2013-02-28 03:05:00,31.0,23.0,30.03,North,0,5.4,6.7,72,0.00,,,0.00,WUHU216HW,2013-02-28 09:05:00,
2013-02-28 03:10:00,31.0,23.0,30.03,North,0,5.4,6.7,72,0.00,,,0.00,WUHU216HW,2013-02-28 09:10:00,
2013-02-28 09:30:00,28.6,20.8,30.12,North,0,9.8,9.8,72,0.00,,,0.00,WUHU216HW,2013-02-28 15:30:00,
2013-02-28 09:35:00,28.6,20.8,30.12,North,0,12.3,12.3,72,0.00,,,0.00,WUHU216HW,2013-02-28 15:35:00,
2013-02-28 09:36:00,28.6,20.8,30.12,North,0,12.3,12.3,72,0.00,,,0.00,WUHU216HW,2013-02-28 15:36:00,
2013-02-28 09:40:00,28.6,20.8,30.12,North,0,12.3,12.3,72,0.00,,,0.00,WUHU216HW,2013-02-28 15:40:00,
2013-02-28 10:00:00,28.8,20.6,30.12,NNW,338,8.5,8.5,71,0.00,,,0.00,WUHU216HW,2013-02-28 16:00:00,
2013-02-28 10:05:00,29.0,20.8,30.12,North,0,5.6,8.5,71,0.00,,,0.00,WUHU216HW,2013-02-28 16:05:00,
2013-02-28 10:10:00,29.0,20.8,30.12,North,0,5.6,7.2,71,0.00,,,0.00,WUHU216HW,2013-02-28 16:10:00,
2013-02-28 10:30:00,29.2,21.0,30.13,North,0,9.2,9.2,71,0.00,,,0.00,WUHU216HW,2013-02-28 16:30:00,
2013-02-28 10:31:00,29.2,21.0,30.13,North,5,8.1,9.2,71,0.00,,,0.00,WUHU216HW,2013-02-28 16:31:00,
2013-02-28 10:35:00,29.2,21.0,30.13,NNE,23,6.0,9.2,71,0.00,,,0.00,WUHU216HW,2013-02-28 16:35:00,
2013-02-28 10:36:00,29.2,21.0,30.13,NNE,23,6.0,9.2,71,0.00,,,0.00,WUHU216HW,2013-02-28 16:36:00,
2013-02-28 10:40:00,29.2,21.0,30.13,NNE,23,6.0,6.0,71,0.00,,,0.00,WUHU216HW,2013-02-28 16:40:00,
2013-02-28 11:00:00,29.2,21.0,30.13,North,0,7.8,7.8,71,0.00,,,0.00,WUHU216HW,2013-02-28 17:00:00,
2013-02-28 11:01:00,29.2,21.0,30.13,North,0,7.8,7.8,71,0.00,,,0.00,WUHU216HW,2013-02-28 17:01:00,
2013-02-28 11:05:00,29.2,21.0,30.13,North,0,7.8,7.8,71,0.00,,,0.00,WUHU216HW,2013-02-28 17:05:00,
2013-02-28 11:06:00,29.2,21.0,30.13,North,0,7.8,7.8,71,0.00,,,0.00,WUHU216HW,2013-02-28 17:06:00,
2013-02-28 11:10:00,29.2,21.0,30.13,North,0,7.8,7.8,71,0.00,,,0.00,WUHU216HW,2013-02-28 17:10:00,
2013-02-28 11:30:00,29.2,21.2,30.14,NE,45,6.9,6.9,72,0.00,,,0.00,WUHU216HW,2013-02-28 17:30:00,
2013-02-28 11:35:00,29.0,21.4,30.14,NE,45,5.6,6.9,73,0.00,,,0.00,WUHU216HW,2013-02-28 17:35:00,
2013-02-28 11:40:00,29.0,21.4,30.14,NE,45,5.6,5.6,73,0.00,,,0.00,WUHU216HW,2013-02-28 17:40:00,
2013-02-28 12:00:00,28.8,21.3,30.14,NNE,23,11.4,11.4,73,0.00,,,0.00,WUHU216HW,2013-02-28 18:00:00,
2013-02-28 12:05:00,28.8,21.3,30.14,North,0,9.4,11.4,73,0.00,,,0.00,WUHU216HW,2013-02-28 18:05:00,
2013-02-28 12:10:00,28.8,21.3,30.14,North,0,9.4,9.4,73,0.00,,,0.00,WUHU216HW,2013-02-28 18:10:00,
2013-02-28 12:30:00,29.0,21.4,30.14,NNE,23,8.3,8.3,73,0.00,,,0.00,WUHU216HW,2013-02-28 18:30:00,
2013-02-28 12:35:00,29.0,21.4,30.14,NNE,23,14.1,14.1,73,0.00,,,0.00,WUHU216HW,2013-02-28 18:35:00,
2013-02-28 13:00:00,29.0,21.4,30.14,NNE,23,10.1,10.1,73,0.00,,,0.00,WUHU216HW,2013-02-28 19:00:00,
2013-02-28 13:05:00,29.0,21.4,30.14,NNE,23,10.7,11.9,73,0.00,,,0.00,WUHU216HW,2013-02-28 19:05:00,
2013-02-28 13:10:00,29.0,21.4,30.14,NNE,23,10.7,11.9,73,0.00,,,0.00,WUHU216HW,2013-02-28 19:10:00,
2013-02-28 13:30:00,29.2,21.2,30.13,NE,45,15.9,15.9,72,0.00,,,0.00,WUHU216HW,2013-02-28 19:30:00,
2013-02-28 13:35:00,29.2,21.2,30.14,NNE,23,13.4,15.9,72,0.00,,,0.00,WUHU216HW,2013-02-28 19:35:00,
2013-02-28 14:00:00,29.0,21.1,30.13,North,0,13.9,13.9,72,0.00,,,0.00,WUHU216HW,2013-02-28 20:00:00,
2013-02-28 14:05:00,29.0,21.1,30.13,North,0,12.3,13.9,72,0.00,,,0.00,WUHU216HW,2013-02-28 20:05:00,
2013-02-28 14:10:00,29.0,21.1,30.13,North,0,12.3,12.3,72,0.00,,,0.00,WUHU216HW,2013-02-28 20:10:00,
2013-02-28 14:30:00,28.8,20.4,30.14,North,0,6.5,6.5,70,0.00,,,0.00,WUHU216HW,2013-02-28 20:30:00,
2013-02-28 14:35:00,28.8,20.4,30.14,North,0,10.5,10.5,70,0.00,,,0.00,WUHU216HW,2013-02-28 20:35:00,
2013-02-28 14:36:00,28.8,20.4,30.14,North,0,10.5,10.5,70,0.00,,,0.00,WUHU216HW,2013-02-28 20:36:00,
2013-02-28 15:00:00,28.8,19.3,30.14,NNE,23,17.9,17.9,67,0.00,,,0.00,WUHU216HW,2013-02-28 21:00:00,
2013-02-28 15:05:00,28.8,19.3,30.14,North,0,13.0,17.9,67,0.00,,,0.00,WUHU216HW,2013-02-28 21:05:00,
2013-02-28 15:30:00,29.3,19.4,30.14,North,0,9.4,9.4,66,0.00,,,0.00,WUHU216HW,2013-02-28 21:30:00,
2013-02-28 15:35:00,29.2,19.2,30.14,NNW,338,9.2,9.4,66,0.00,,,0.00,WUHU216HW,2013-02-28 21:35:00,
2013-02-28 15:40:00,29.2,19.2,30.14,NNW,338,9.2,9.2,66,0.00,,,0.00,WUHU216HW,2013-02-28 21:40:00,
2013-02-28 16:00:00,28.8,19.3,30.15,ENE,68,13.2,13.2,67,0.00,,,0.00,WUHU216HW,2013-02-28 22:00:00,
2013-02-28 16:05:00,28.8,19.3,30.15,NE,45,6.9,13.2,67,0.00,,,0.00,WUHU216HW,2013-02-28 22:05:00,
2013-02-28 16:30:00,28.6,19.8,30.15,NNE,23,12.1,12.1,69,0.00,,,0.00,WUHU216HW,2013-02-28 22:30:00,
2013-02-28 16:35:00,28.6,19.5,30.15,NNE,23,12.1,12.1,68,0.00,,,0.00,WUHU216HW,2013-02-28 22:35:00,
2013-02-28 16:36:00,28.6,19.5,30.15,NNE,23,12.1,12.1,68,0.00,,,0.00,WUHU216HW,2013-02-28 22:36:00,
2013-02-28 16:40:00,28.6,19.5,30.15,NNE,23,12.1,12.1,68,0.00,,,0.00,WUHU216HW,2013-02-28 22:40:00,
2013-02-28 17:00:00,28.6,19.8,30.15,NNE,23,6.5,6.5,69,0.00,,,0.00,WUHU216HW,2013-02-28 23:00:00,
2013-02-28 17:05:00,28.6,19.8,30.15,North,0,9.2,9.2,69,0.00,,,0.00,WUHU216HW,2013-02-28 23:05:00,
2013-02-28 17:30:00,28.4,19.6,30.16,North,0,9.2,9.2,69,0.00,,,0.00,WUHU216HW,2013-02-28 23:30:00,
2013-02-28 17:35:00,28.4,19.6,30.16,NNE,23,6.5,9.2,69,0.00,,,0.00,WUHU216HW,2013-02-28 23:35:00,
2013-02-28 18:00:00,27.9,19.1,30.16,North,0,7.6,7.6,69,0.00,,,0.00,WUHU216HW,2013-03-01 00:00:00,
2013-02-28 18:05:00,27.9,19.1,30.16,NNE,23,6.0,7.6,69,0.00,,,0.00,WUHU216HW,2013-03-01 00:05:00,
2013-02-28 18:10:00,27.9,19.1,30.16,NNE,23,6.0,7.6,69,0.00,,,0.00,WUHU216HW,2013-03-01 00:10:00,
2013-02-28 18:30:00,26.8,18.6,30.16,North,0,4.5,4.5,71,0.00,,,0.00,WUHU216HW,2013-03-01 00:30:00,
2013-02-28 18:35:00,26.8,18.6,30.16,North,0,7.4,7.4,71,0.00,,,0.00,WUHU216HW,2013-03-01 00:35:00,
2013-02-28 18:36:00,26.8,18.6,30.16,North,0,7.4,7.4,71,0.00,,,0.00,WUHU216HW,2013-03-01 00:36:00,
2013-02-28 19:00:00,25.9,18.1,30.17,North,0,2.9,2.9,72,0.00,,,0.00,WUHU216HW,2013-03-01 01:00:00,
2013-02-28 19:05:00,25.7,17.9,30.17,North,0,5.4,5.4,72,0.00,,,0.00,WUHU216HW,2013-03-01 01:05:00,
2013-02-28 19:30:00,24.8,17.0,30.18,North,0,4.7,4.7,72,0.00,,,0.00,WUHU216HW,2013-03-01 01:30:00,
2013-02-28 19:35:00,25.0,17.2,30.18,North,0,4.7,4.7,72,0.00,,,0.00,WUHU216HW,2013-03-01 01:35:00,
2013-02-28 19:36:00,25.0,17.2,30.18,North,0,4.7,4.7,72,0.00,,,0.00,WUHU216HW,2013-03-01 01:36:00,
2013-02-28 20:00:00,24.3,16.6,30.18,North,0,6.5,6.5,72,0.00,,,0.00,WUHU216HW,2013-03-01 02:00:00,
2013-02-28 20:05:00,24.3,16.8,30.18,North,0,5.1,6.5,73,0.00,,,0.00,WUHU216HW,2013-03-01 02:05:00,
2013-02-28 20:30:00,23.6,16.2,30.17,NNE,23,3.8,3.8,73,0.00,,,0.00,WUHU216HW,2013-03-01 02:30:00,
2013-02-28 20:35:00,23.8,16.4,30.17,North,0,5.4,5.4,73,0.00,,,0.00,WUHU216HW,2013-03-01 02:35:00,
2013-02-28 20:36:00,23.8,16.4,30.17,North,0,5.4,5.4,73,0.00,,,0.00,WUHU216HW,2013-03-01 02:36:00,
2013-02-28 20:40:00,23.8,16.4,30.17,North,0,5.4,5.4,73,0.00,,,0.00,WUHU216HW,2013-03-01 02:40:00,
2013-02-28 21:00:00,23.4,15.7,30.19,NNE,23,5.4,5.4,72,0.00,,,0.00,WUHU216HW,2013-03-01 03:00:00,
2013-02-28 21:05:00,23.4,15.7,30.19,NNE,23,4.7,5.4,72,0.00,,,0.00,WUHU216HW,2013-03-01 03:05:00,
2013-02-28 21:30:00,22.7,15.3,30.19,North,0,4.9,4.9,73,0.00,,,0.00,WUHU216HW,2013-03-01 03:30:00,
2013-02-28 21:35:00,22.7,15.3,30.19,North,0,3.1,4.9,73,0.00,,,0.00,WUHU216HW,2013-03-01 03:35:00,
2013-02-28 21:40:00,22.7,15.3,30.19,North,0,3.1,4.9,73,0.00,,,0.00,WUHU216HW,2013-03-01 03:40:00,
2013-02-28 22:00:00,22.7,15.7,30.19,NE,45,6.7,6.7,74,0.00,,,0.00,WUHU216HW,2013-03-01 04:00:00,
2013-02-28 22:05:00,22.7,15.7,30.19,NE,45,6.7,6.7,74,0.00,,,0.00,WUHU216HW,2013-03-01 04:05:00,
2013-02-28 22:30:00,21.4,14.9,30.20,North,0,5.4,5.4,76,0.00,,,0.00,WUHU216HW,2013-03-01 04:30:00,
2013-02-28 22:35:00,21.4,14.9,30.20,North,0,4.9,5.4,76,0.00,,,0.00,WUHU216HW,2013-03-01 04:35:00,
2013-02-28 22:36:00,21.4,14.9,30.20,North,0,4.9,5.4,76,0.00,,,0.00,WUHU216HW,2013-03-01 04:36:00,
2013-02-28 22:40:00,21.4,14.9,30.20,North,0,4.9,4.9,76,0.00,,,0.00,WUHU216HW,2013-03-01 04:40:00,
2013-02-28 23:00:00,21.6,15.5,30.20,NNE,23,6.0,6.0,77,0.00,,,0.00,WUHU216HW,2013-03-01 05:00:00,
2013-02-28 23:05:00,21.6,15.5,30.20,North,0,6.0,6.0,77,0.00,,,0.00,WUHU216HW,2013-03-01 05:05:00,
2013-02-28 23:06:00,21.6,15.5,30.20,North,0,6.0,6.0,77,0.00,,,0.00,WUHU216HW,2013-03-01 05:06:00,
2013-02-28 23:10:00,21.6,15.5,30.20,North,0,6.0,6.0,77,0.00,,,0.00,WUHU216HW,2013-03-01 05:10:00,
2013-02-28 23:30:00,22.0,15.9,30.20,NNE,23,5.4,5.4,77,0.00,,,0.00,WUHU216HW,2013-03-01 05:30:00,
2013-02-28 23:35:00,22.0,15.9,30.20,NE,45,7.4,7.4,77,0.00,,,0.00,WUHU216HW,2013-03-01 05:35:00,
2013-02-28 23:36:00,22.0,15.9,30.20,NE,45,7.4,7.4,77,0.00,,,0.00,WUHU216HW,2013-03-01 05:36:00,
2013-02-28 23:40:00,22.0,15.9,30.20,NE,45,7.4,7.4,77,0.00,,,0.00,WUHU216HW,2013-03-01 05:40:00,